sat.trackr.live / text

‹ back to catalog

STARLINK-33819

NORAD 63494 · 2025-071B

PAYLOAD ACTIVE UNKNOWN

§ Identity

Operator
Country
US
Launch date
2025-04-07
Launch site
AFWTR
Launch vehicle
Mass (kg)
RCS (m²)

Purposes: comms

External: N2YO · Heavens-Above · Gunter

§ Orbital elements

Epoch: 2026-09-20T09:53:00.073824Z

Period
93.85 min
Inclination
53.1642°
Eccentricity
0.0000580
Mean motion
15.34391953 rev/d
Perigee alt
462.3 km
Apogee alt
463.1 km
Semi-major
6,840.9 km
B*
7.1852e-4
RAAN
310.4287°
Arg perigee
40.5756°
Mean anomaly
319.5290°
Rev number
8,263

§ Raw data

STARLINK-338191 63494U 25071B   26263.41180641  .00023971  00000+0  71852-3 0  99922 63494  53.1642 310.4287 0000580  40.5756 319.5290 15.34391953 82635

JSON: /api/v1/satellites/63494 · /tle

For live sub-satellite position, see the globe view (requires WebGL).

§ Visibility from observer

Set your observer location to see the next 7 days of passes ≥ 10°. The values pass through the URL so the page stays shareable.

No JS? Fill the form by hand. The geolocation button needs JavaScript.